Weather History for KVGT - February, 2013

Change the Weather History Date:

Monday, February 4, 2013

  Actual Average Record
Temperature  
Mean Temperature 57 °F -  
Max Temperature 66 °F 63 °F 76 °F (1953)
Min Temperature 46 °F 41 °F 15 °F (1957)
Degree Days  
Heating Degree Days 8    
Growing Degree Days 7 (Base 50)    
Moisture  
Dew Point 25 °F    
Average Humidity 33    
Maximum Humidity 50    
Minimum Humidity 17    
Precipitation  
Precipitation 0.00 in - - ()
Sea Level Pressure  
Sea Level Pressure 30.10 in    
Wind  
Wind Speed 4 mph (NNW)    
Max Wind Speed 12 mph    
Max Gust Speed -    
Visibility 10 miles    
Events      
Averages and records for this station are not official NWS values.
T = Trace of Precipitation, MM = Missing Value Source: NWS Daily Summary

Daily Weather History Graph

Daily Weather History Graph

Search for Another Location

Airport or City:

Trip Planner

Search our weather history database for the weather conditions in past years. The results will help you decide how hot, cold, wet, or windy it might be!

Date:

Astronomy

Feb. 04, 2013 Rise Set
Actual Time 6:39 AM PST 5:10 PM PST
Civil Twilight 6:12 AM PST 5:37 PM PST
Nautical Twilight 5:41 AM PST 6:08 PM PST
Astronomical Twilight 5:11 AM PST 6:38 PM PST
Moon 1:17 AM PST (2/4) 11:40 AM PST (2/4)
Length of Visible Light 11h 25m
Length of Day
10h 31m
Last Quarter, 36% of the Moon is Illuminated
Feb 4
Last Quarter
Feb 9
New
Feb 17
First Quarter
Feb 25
Full
Mar 4
Last Quarter

Hourly Weather History & Observations

Time (PST) Temp. Dew Point Humidity Pressure Visibility Wind Dir Wind Speed Gust Speed Precip Events Conditions
12:53 AM 52.0 °F 30.9 °F 45% 30.11 in 10.0 mi NNW 5.8 mph - N/A   Clear
2:53 AM 50.0 °F 30.2 °F 47% 30.08 in 10.0 mi Calm Calm - N/A   Clear
3:53 AM 48.0 °F 30.0 °F 50% 30.12 in 10.0 mi NW 4.6 mph - N/A   Clear
4:53 AM 50.0 °F 27.0 °F 41% 30.12 in 10.0 mi NNW 8.1 mph - N/A   Clear
5:53 AM 48.9 °F 26.1 °F 41% 30.12 in 10.0 mi NNW 11.5 mph - N/A   Clear
6:53 AM 48.0 °F 26.1 °F 42% 30.14 in 10.0 mi North 6.9 mph - N/A   Clear
7:53 AM 52.0 °F 24.1 °F 34% 30.16 in 10.0 mi North 5.8 mph - N/A   Clear
8:53 AM 54.0 °F 26.1 °F 34% 30.18 in 10.0 mi NE 4.6 mph - N/A   Clear
9:53 AM 57.9 °F 25.0 °F 28% 30.19 in 10.0 mi Calm Calm - N/A   Clear
10:53 AM 59.0 °F 23.0 °F 25% 30.18 in 10.0 mi ESE 5.8 mph - N/A   Clear
11:53 AM 62.1 °F 23.0 °F 22% 30.14 in 10.0 mi SSW 3.5 mph - N/A   Clear
12:53 PM 64.0 °F 23.0 °F 21% 30.10 in 10.0 mi Calm Calm - N/A   Clear
1:53 PM 64.9 °F 21.0 °F 19% 30.07 in 10.0 mi ESE 3.5 mph - N/A   Clear
2:53 PM 66.9 °F 19.9 °F 17% 30.06 in 10.0 mi Calm Calm - N/A   Clear
3:53 PM 66.9 °F 19.9 °F 17% 30.05 in 10.0 mi Calm Calm - N/A   Clear
4:53 PM 64.9 °F 21.9 °F 19% 30.05 in 10.0 mi SE 3.5 mph - N/A   Clear
5:53 PM 62.1 °F 23.0 °F 22% 30.06 in 10.0 mi Calm Calm - N/A   Clear
6:53 PM 57.0 °F 26.1 °F 30% 30.06 in 10.0 mi NW 3.5 mph - N/A   Clear
7:53 PM 55.0 °F 28.0 °F 35% 30.07 in 10.0 mi WNW 5.8 mph - N/A   Clear
8:53 PM 52.0 °F 28.0 °F 40% 30.08 in 10.0 mi WNW 5.8 mph - N/A   Clear
9:53 PM 51.1 °F 28.0 °F 41% 30.07 in 10.0 mi Calm Calm - N/A   Clear
10:53 PM 50.0 °F 28.0 °F 43% 30.07 in 10.0 mi Calm Calm - N/A   Clear
11:53 PM 46.9 °F 28.0 °F 48% 30.08 in 10.0 mi Calm Calm - N/A   Clear